SP4LIN-15 Weather Reports


time (UTC)temp
C
wind
direction
speed
KPH
gust
KPH
rain 1hr
cm
rain 24hr
cm
rain mn
cm
humidity
%
barometer
mb
20260905211038 12 247 3.2 6.4 0.00 0.36 0.00 87 1003.8
20260905205538 12 247 3.2 3.2 0.00 0.36 0.00 87 1004.0
20260905204038 12 247 6.4 6.4 0.00 0.36 0.00 88 1003.8
20260905202538 12 270 0.0 3.2 0.00 0.36 0.00 87 1003.7
20260905201038 12 337 0.0 9.7 0.00 0.36 0.00 87 1003.8
20260905195538 12 270 0.0 0.0 0.00 0.36 0.00 87 1003.6
20260905194038 12 270 0.0 3.2 0.00 0.36 0.00 87 1003.5
20260905192538 12 270 0.0 4.8 0.00 0.36 0.00 88 1003.6
20260905191038 12 247 9.7 9.7 0.00 0.36 0.00 87 1003.4
20260905185538 12 202 0.0 1.6 0.00 0.36 0.00 86 1003.3
20260905184038 12 247 0.0 0.0 0.00 0.36 0.00 85 1003.2
20260905182538 12 247 0.0 0.0 0.00 0.36 0.00 85 1003.2
20260905181038 13 247 0.0 1.6 0.00 0.36 0.00 84 1003.3
20260905175538 13 225 3.2 3.2 0.00 0.36 0.00 83 1003.1
20260905174038 13 270 0.0 6.4 0.00 0.36 0.00 81 1003.0
20260905172538 13 315 0.0 1.6 0.00 0.36 0.00 83 1003.0
20260905171038 14 247 0.0 1.6 0.00 0.36 0.00 82 1003.0
20260905165538 15 247 3.2 3.2 0.00 0.41 0.00 83 1003.0
20260905164038 15 292 0.0 0.0 0.00 0.41 0.00 82 1002.8
20260905162538 15 292 0.0 0.0 0.00 0.41 0.00 81 1002.5
20260905161038 15 270 0.0 0.0 0.00 0.41 0.00 80 1002.3
20260905155538 15 270 0.0 0.0 0.00 0.41 0.00 78 1002.5
20260905154038 15 292 3.2 3.2 0.00 0.41 0.00 78 1002.5
20260905152538 16 247 0.0 12.9 0.00 0.41 0.00 77 1002.5
20260905151038 16 270 1.6 3.2 0.00 0.41 0.00 75 1002.6
20260905145538 17 225 1.6 1.6 0.00 0.61 0.00 74 1002.5
20260905144038 20 292 6.4 6.4 0.00 0.61 0.00 72 1002.7
20260905142538 18 292 3.2 6.4 0.05 0.61 0.00 77 1002.5
20260905141038 16 247 1.6 1.6 0.05 0.61 0.00 79 1002.2
20260905135538 17 247 3.2 4.8 0.05 0.86 0.00 78 1002.2
20260905134038 17 292 0.0 0.0 0.10 0.86 0.00 86 1002.2
20260905132538 15 225 0.0 0.0 0.10 0.81 0.00 84 1002.1
20260905131039 15 270 0.0 0.0 0.10 0.81 0.00 80 1002.3
20260905125539 15 270 0.0 4.8 0.10 0.97 0.00 80 1002.2
20260905124039 16 247 3.2 14.5 0.00 0.86 0.00 74 1002.3
20260905122539 17 292 3.2 3.2 0.00 0.86 0.00 73 1002.0
20260905121039 17 315 9.7 12.9 0.00 0.86 0.00 67 1002.1
20260905115539 20 292 0.0 8.0 0.00 0.86 0.00 62 1001.6
20260905114039 21 225 6.4 6.4 0.00 0.86 0.00 57 1001.4
20260905112539 21 292 4.8 4.8 0.00 0.86 0.00 61 1001.3
20260905111039 20 247 1.6 1.6 0.00 0.86 0.00 59 1001.2
20260905105539 21 225 8.0 8.0 0.00 0.86 0.00 66 1001.3
20260905104039 19 270 0.0 4.8 0.00 0.86 0.00 70 1001.4
20260905102539 18 270 1.6 6.4 0.00 0.86 0.00 70 1001.3
20260905101039 18 270 6.4 11.3 0.00 0.86 0.00 69 1001.4
20260905095539 17 292 3.2 3.2 0.00 0.86 0.00 69 1001.0
20260905094039 18 270 8.0 8.0 0.00 0.86 0.00 64 1000.8
20260905092539 21 0 9.7 17.7 0.00 0.86 0.00 61 1000.4
20260905091039 20 270 8.0 8.0 0.00 0.86 0.00 67 1000.3
20260905085539 20 315 3.2 3.2 0.10 0.86 0.00 71 1000.2
20260905084039 18 247 0.0 3.2 0.10 0.86 0.00 77 1000.1
20260905082539 16 270 0.0 0.0 0.10 0.86 0.00 86 1000.0
20260905081039 14 225 12.9 12.9 0.10 0.86 0.00 83 1000.1
20260905075539 15 270 1.6 12.9 0.00 0.76 0.00 77 999.8
20260905074039 17 225 3.2 8.0 0.00 0.76 0.00 72 999.4
20260905072539 19 270 12.9 12.9 0.00 0.76 0.00 66 999.1
20260905071039 20 247 4.8 9.7 0.00 0.76 0.00 66 998.8
20260905065539 17 270 9.7 9.7 0.00 0.76 0.00 74 998.8
20260905064039 16 247 3.2 3.2 0.00 0.76 0.00 77 998.8
20260905062539 16 247 0.0 4.8 0.00 0.76 0.00 75 998.7
20260905061039 16 202 3.2 12.9 0.00 0.76 0.00 79 998.6
20260905055539 15 247 3.2 3.2 0.00 0.76 0.00 81 998.5
20260905054039 15 270 1.6 1.6 0.00 0.76 0.00 82 998.3
20260905052539 15 270 6.4 6.4 0.00 0.76 0.00 83 998.2
20260905051039 14 270 0.0 0.0 0.00 0.76 0.00 85 997.9
20260905045539 13 292 8.0 8.0 0.00 0.76 0.00 85 997.8
20260905044039 13 337 0.0 1.6 0.00 0.76 0.00 84 997.6
20260905042539 13 270 0.0 4.8 0.00 0.76 0.00 84 997.5
20260905041039 13 292 0.0 1.6 0.00 0.76 0.00 85 997.6
20260905035539 13 270 8.0 8.0 0.00 0.76 0.00 84 997.3
20260905034039 13 315 4.8 4.8 0.00 0.76 0.00 83 997.0
20260905032539 13 270 0.0 16.1 0.00 0.76 0.00 84 996.8
20260905031040 13 225 0.0 3.2 0.00 0.76 0.00 83 996.7
20260905025539 13 292 4.8 9.7 0.00 0.76 0.00 83 996.7
20260905024040 13 247 9.7 9.7 0.00 0.76 0.00 83 996.3
20260905022540 13 292 6.4 6.4 0.00 0.76 0.00 83 996.1
20260905021040 13 270 0.0 0.0 0.00 0.76 0.00 84 995.9
20260905015540 13 270 0.0 0.0 0.00 0.76 0.00 85 995.7
20260905014040 13 270 0.0 0.0 0.00 0.76 0.00 86 995.3
20260905012540 14 270 0.0 0.0 0.00 0.76 0.00 87 995.1
20260905011040 15 270 0.0 0.0 0.00 0.76 0.00 87 995.0
20260905005540 15 270 0.0 0.0 0.00 0.76 0.00 88 994.8
20260905004040 15 270 0.0 0.0 0.00 0.76 0.00 88 994.4
20260905002540 15 270 0.0 0.0 0.10 0.76 0.00 89 994.2
20260905001040 15 270 0.0 0.0 0.10 0.76 0.00 89 994.0
20260904235540 15 270 0.0 0.0 0.10 0.76 0.00 89 993.9
20260904234040 15 270 0.0 0.0 0.10 0.76 0.00 88 993.8
20260904232540 16 270 0.0 0.0 0.00 0.66 0.00 88 993.7
20260904231040 16 270 0.0 0.0 0.00 0.66 0.00 88 993.6
20260904225540 16 270 0.0 0.0 0.00 0.66 0.00 88 993.7
20260904224040 16 270 0.0 0.0 0.00 0.66 0.00 87 993.5
20260904222540 16 270 0.0 0.0 0.00 0.66 0.00 87 993.5
20260904221040 16 270 0.0 0.0 0.00 0.66 0.00 87 993.4
20260904215540 16 270 0.0 0.0 0.00 0.66 0.00 87 993.4
20260904214040 16 270 0.0 0.0 0.00 0.66 0.00 86 993.4
20260904212540 16 270 0.0 0.0 0.00 0.66 0.00 86 993.6